Regional Weather Roundup
Issued by NWS

Home | Current Version | Previous Version | Text Only | Print | Product List | Glossary On
Versions: 1 2 3 4 5 6 7 8 9 10 11 12 13 14 15 16 17 18 19 20 21 22 23 24 25 26 27 28 29 30 31 32 33 34 35 36 37 38 39 40 41 42 43 44 45
000
ASPQ40 PGUM 271015
RWRPQ
WEATHER ROUNDUP FOR THE MARIANAS AND MICRONESIA
NATIONAL WEATHER SERVICE TIYAN GU
800 PM CHST WED MAY 27 2015

GUZ001>004-271100-
MARIANA ISLANDS-

CITY           SKY/WX    TMP DP  RH WIND       PRES   REMARKS
GUAM AIRPORT   PTCLDY    82  75  78 E8        29.85R
ANDERSEN AFB   PTCLDY    79  75  89 NE10      29.86R
ROTA AIRPORT   NOT AVBL
TINIAN AP      NOT AVBL
SAIPAN AP      LGT RAIN  81  75  83 E13       29.85R

$$

PMZ161-271100-
REPUBLIC OF PALAU-

CITY           SKY/WX    TMP DP  RH WIND       PRES   REMARKS
KOROR AP       MOCLDY    81  77  89 CALM      29.82R
KOROR WSO      MOCLDY    82  77  83 CALM      29.82R HX  91

$$

PMZ171>174-271100-
FEDERATED STATES OF MICRONESIA-

CITY           SKY/WX    TMP DP  RH WIND       PRES   REMARKS
YAP AIRPORT    MOCLDY    81  77  89 CALM      29.82R
CHUUK AP       MOCLDY    81  77  89 CALM      29.83R
POHNPEI AP     NOT AVBL
POHNPEI WSO    NOT AVBL
KOSRAE AP      NOT AVBL

$$

PMZ181-271100-
REPUBLIC OF THE MARSHALL ISLANDS-

CITY           SKY/WX    TMP DP  RH WIND       PRES   REMARKS
KWAJALEIN AP   CLEAR     82  73  74 E7        29.88S
MAJURO AP      NOT AVBL
MAJURO WSO     MOCLDY    82  75  78 E9        29.86R

$$



USA.gov is the U.S. government's official web portal to all federal, state and local government web resources and services.